Location: Il Ritiro
(43.4167°N, 13.1333°E)
Time: 01:26:24
(UTC+00:00)

Cosmos-2242 - Pass Details

Date: 05 July 2020
Orbit: 592 x 616 km, 82.5° (Epoch: 11 August)

Event Time Altitude Azimuth Distance (km) Brightness Sun altitude
Rises 20:49:35 0° 344° (NNW) 2,871 7.9 -16.2°
Reaches altitude 10° 20:51:54 10° 337° (NNW) 1,966 6.9 -16.5°
Maximum altitude 20:55:57 40° 268° (W) 906 4.1 -16.9°
Enters shadow 20:59:06 16° 204° (SSW) 1,622 4.9 -17.2°
